{"data":{"norad_id":60387,"epoch":"2026-09-22T22:30:42.589152Z","epoch_age_seconds":72985,"freshness":"FRESH","line1":"1 60387U 24140J   26265.93799293  .00000046  00000+0  52617-4 0  9991","line2":"2 60387  88.9668 269.8412 0018420  96.1450 264.1800 13.51021891105708","mean_motion":13.51021891,"eccentricity":0.001842,"inclination_deg":88.9668,"raan_deg":269.8412,"arg_perigee_deg":96.145,"mean_anomaly_deg":264.18,"bstar":5.2617e-5,"rev_number":10570,"period_min":106.58598573367,"perigee_km":1054.7844366707,"apogee_km":1082.2178515937,"semimajor_km":7446.6381441322,"source":"CELESTRAK","updated_at":"2026-09-23T09:00:20.598900Z"}}